Location: G�kdere
(37.0328°N, 30.9000°E)
Time: 04:34:42
(UTC+00:00)

ARGOS - Pass Details

Date: 03 March 2021
Orbit: 819 x 835 km, 98.4° (Epoch: 20 April)

Event Time Altitude Azimuth Distance (km) Brightness Sun altitude
Rises 16:05:50 0° 137° (SE) 3,365 6.0 -3.5°
Reaches altitude 10° 16:08:27 10° 126° (SE) 2,437 5.2 -4.0°
Maximum altitude 16:13:03 29° 68° (ENE) 1,481 4.0 -4.9°
Drops below altitude 10° 16:17:39 10° 10° (N) 2,453 5.5 -5.8°
Sets 16:20:17 0° 359° (N) 3,392 6.3 -6.3°
